Vorticity
nan nan nan nan nan nan nan nan nan nan nan nan nan nan nan nan nan nan nan nan nan nan nan nan nan nan nan nan nan nan nan nan nan nan nan nan nan nan nan nan nan nan nan nan nan nan nan nan nan
nan 3 3 6 8 6 8 7 2 1 7 11 8 6 10 7 3 10 9 8 11 7 7 8 9 9 6 5 4 5 7 7 6 6 5 6 7 7 7 5 6 7 4 3 7 7 5 5 nan
nan 4 6 3 7 4 7 13 9 5 4 7 3 5 8 11 7 5 9 14 9 5 5 10 11 7 6 6 5 6 6 7 7 7 6 5 5 3 3 3 5 7 7 9 8 5 4 5 nan
nan 3 5 9 3 5 2 9 14 11 5 4 6 8 3 7 8 7 12 12 7 4 5 6 9 8 7 6 7 7 8 9 10 7 5 7 3 2 4 5 4 4 7 7 8 8 6 5 nan
nan 6 6 7 4 3 3 0 5 8 9 9 5 3 7 8 7 11 13 9 6 4 8 6 6 7 8 8 8 9 10 10 11 10 8 4 3 6 7 6 5 6 6 6 6 6 6 6 nan
nan 5 9 8 8 -2 8 2 -1 2 4 7 8 2 8 9 10 11 11 7 5 6 7 7 7 8 7 8 9 10 10 11 13 13 12 9 8 7 7 9 8 6 5 5 5 5 6 5 nan
nan 7 4 7 10 4 8 9 7 1 -1 2 4 5 7 9 10 12 9 5 5 7 8 8 8 5 5 6 8 10 9 9 9 8 8 10 9 10 7 6 11 13 8 6 6 5 5 5 nan
nan 8 12 10 8 7 10 10 13 12 -0 2 9 10 8 9 11 6 7 8 5 6 10 12 9 6 3 3 7 8 8 7 4 2 1 0 -1 2 6 8 9 11 12 10 8 6 6 6 nan
nan 8 12 9 3 9 9 6 3 14 17 4 5 6 12 14 10 5 2 3 6 7 12 11 10 10 6 2 3 3 2 -0 -2 -1 -1 -1 1 -0 1 4 7 8 8 7 7 6 4 2 nan
nan 6 7 2 6 8 6 6 5 8 7 4 4 7 11 12 6 8 6 0 2 6 8 10 7 7 6 5 3 -2 -2 -1 1 3 1 2 5 4 1 -1 -1 1 1 2 3 2 3 5 nan
nan 6 9 1 6 8 6 6 3 4 6 9 11 8 7 6 7 7 8 2 2 7 8 10 10 8 3 2 1 4 5 6 6 7 7 6 4 5 4 2 2 1 3 5 2 2 5 7 nan
nan 9 5 8 6 10 6 4 4 4 1 9 17 14 10 8 6 5 4 6 7 7 9 9 8 7 5 5 7 8 8 6 6 8 8 6 6 8 7 7 7 7 8 8 6 7 7 6 nan
nan 9 8 9 5 5 7 5 6 7 3 5 9 9 8 8 8 7 3 3 7 8 8 9 8 7 7 8 9 8 7 6 8 7 6 7 9 8 7 7 7 8 9 8 7 7 6 6 nan
nan 11 8 9 6 6 9 3 3 4 5 1 3 6 9 10 8 5 4 2 5 6 7 7 8 9 8 9 8 8 7 7 8 6 8 10 8 8 8 7 7 7 8 9 9 7 7 6 nan
nan 6 11 10 7 10 12 6 5 3 5 4 1 4 6 8 9 8 4 2 4 6 6 8 7 7 9 7 6 8 9 7 7 10 9 7 8 8 7 8 8 7 8 9 8 7 7 6 nan
nan 3 8 11 9 9 6 12 13 11 6 3 1 0 4 8 6 8 9 4 3 8 7 5 7 9 8 6 7 7 7 9 9 8 7 9 9 7 7 7 8 8 8 7 7 7 5 6 nan
nan 10 11 6 10 6 1 6 12 14 13 7 7 4 6 8 9 11 9 8 7 7 7 7 7 7 7 7 6 9 10 6 6 7 8 9 8 8 7 7 7 7 8 9 7 8 9 7 nan
nan 6 9 14 9 5 3 4 7 10 17 18 14 12 10 10 12 10 6 10 10 7 8 7 8 8 4 4 6 7 6 7 10 7 8 8 9 8 7 8 8 7 7 7 10 8 8 9 nan
nan 10 9 12 13 14 6 6 3 7 13 15 14 14 12 8 11 12 7 7 8 7 8 7 8 6 4 5 5 7 7 8 7 8 11 8 10 9 6 8 7 7 8 9 8 6 6 5 nan
nan 10 10 7 14 13 15 11 10 4 6 12 11 10 10 11 10 11 8 6 8 7 7 7 7 8 6 6 6 12 11 5 8 9 10 9 8 9 10 8 7 7 8 8 7 6 3 6 nan
nan 17 13 10 9 9 11 16 11 6 6 6 7 8 11 12 12 10 9 7 8 8 8 8 8 8 7 7 10 6 6 8 8 9 6 9 9 10 10 9 9 8 7 7 7 8 8 7 nan
nan 13 8 12 7 12 8 13 13 8 2 3 6 7 10 12 12 11 10 10 9 9 10 10 9 8 9 7 9 9 8 7 5 8 9 9 9 10 10 10 9 8 9 9 8 7 9 10 nan
nan 17 11 0 3 6 7 8 11 11 11 8 6 9 11 13 16 12 11 11 10 10 10 9 9 9 9 10 6 9 9 9 10 9 8 7 7 8 9 10 10 8 9 9 9 10 8 8 nan
nan 11 14 13 9 11 11 5 13 6 11 12 11 9 8 10 12 12 11 8 8 10 10 10 9 9 9 9 11 11 10 8 7 7 6 6 7 7 8 10 9 9 10 9 8 9 10 11 nan
nan 4 5 13 9 17 17 3 6 9 8 12 14 8 7 11 10 8 7 6 8 9 8 10 9 8 8 8 9 10 8 7 7 7 8 7 7 10 9 8 9 10 10 10 10 10 10 10 nan
nan -3 6 14 11 9 13 12 1 6 13 14 12 11 9 10 11 10 10 9 9 9 9 10 9 8 8 8 8 9 7 8 8 9 9 8 10 10 10 8 9 10 9 10 10 9 10 11 nan
nan 8 9 6 13 15 7 8 9 10 14 13 9 8 9 11 13 11 9 10 9 9 11 11 8 8 10 9 8 8 9 11 10 9 9 10 11 10 9 9 9 9 9 10 10 10 10 9 nan
nan 13 9 10 10 8 9 5 12 12 7 7 7 7 9 10 10 11 10 9 9 9 9 10 10 9 8 8 10 10 10 9 9 9 10 10 9 10 9 8 9 9 9 9 9 10 9 9 nan
nan 10 7 7 13 14 9 8 9 14 11 8 7 7 9 9 9 10 10 10 10 10 10 10 10 9 9 9 10 11 11 10 9 9 10 9 9 8 8 8 9 8 8 8 8 9 9 9 nan
nan nan nan nan nan nan nan nan nan nan nan nan nan nan nan nan nan nan nan nan nan nan nan nan nan nan nan nan nan nan nan nan nan nan nan nan nan nan nan nan nan nan nan nan nan nan nan nan nan
CAPE
1 0 0 0 0 0 0 0 0 0 0 0 0 0 0 0 0 0 0 0 11 344 975 1347 1996 2380 2373 2253 1952 2039 1683 1737 2009 2060 1835 1396 1213 941 890 782 680 700 700 787 819 855 966 865 619
0 0 0 0 0 0 0 0 0 0 0 0 0 0 0 0 0 0 0 0 81 649 1139 1569 2246 2338 2320 2252 2020 1858 1794 1961 1998 1848 1618 1450 1237 962 848 765 685 608 244 97 469 661 678 626 502
0 0 0 0 0 0 0 0 0 0 0 0 0 0 0 0 0 0 0 0 359 797 1269 1883 2230 2291 2238 2233 2040 1791 1728 1727 1539 1379 1459 1439 1343 697 391 439 653 1000 866 766 652 722 767 717 458
0 0 0 0 0 0 0 0 0 0 0 0 0 0 0 0 0 0 0 47 660 1063 1634 1858 2180 2168 2096 1958 1934 1855 1569 1286 1405 1262 1471 1292 875 602 616 561 409 366 965 805 780 713 657 425 273
0 0 0 0 0 0 0 0 0 0 0 0 0 0 0 0 0 0 2 491 800 1464 1692 1977 2132 2061 1981 1833 1826 1734 1653 1547 1407 1186 1127 1215 915 655 795 607 460 291 402 594 704 571 434 250 190
0 0 0 0 0 0 0 0 0 0 0 0 0 0 0 0 0 0 118 588 912 1433 1667 1835 1746 1550 1650 1688 1590 1536 1540 1285 1137 1128 896 722 890 809 791 715 592 471 463 461 531 478 371 292 205
0 0 0 0 0 0 0 0 0 0 0 0 0 0 0 0 0 0 431 648 920 1535 1825 1860 1650 1419 1201 1150 1238 1200 1097 1026 675 332 181 172 242 450 387 345 457 407 454 386 350 339 372 259 99
0 0 0 0 0 0 0 0 0 0 0 0 0 0 0 0 0 26 247 858 1326 1626 1578 1632 1472 1319 1196 1200 552 253 86 6 3 0 0 0 0 0 3 4 39 201 278 253 243 226 109 45 12
0 0 0 0 0 0 0 0 0 0 0 0 0 0 0 0 1 1 119 330 557 515 761 1521 1414 1223 996 334 9 5 4 2 0 0 0 0 0 0 0 0 0 6 10 12 12 15 11 7 6
0 0 0 0 0 0 0 0 0 0 0 0 0 0 0 0 3 3 179 521 446 271 38 447 443 202 2 0 0 0 0 0 0 0 0 0 0 0 0 0 0 0 0 0 0 0 1 0 0
10 0 0 0 0 0 0 0 0 0 0 0 0 0 0 0 3 1 102 461 215 21 0 1 0 22 0 0 0 0 0 0 0 0 0 0 0 0 0 0 0 0 0 0 0 0 0 0 0
2 3 0 0 0 0 0 0 0 0 0 0 0 0 0 0 0 1 5 1 2 2 1 0 0 0 0 0 0 0 0 0 0 0 0 0 0 0 0 0 0 0 0 0 0 0 0 0 0
13 11 3 0 0 0 0 0 0 0 0 0 0 0 0 0 0 6 4 2 1 1 1 0 0 0 0 0 0 0 0 0 0 0 0 0 0 0 0 0 0 0 0 0 0 0 0 0 0
0 1 5 0 0 0 0 0 0 0 0 0 0 0 0 0 0 5 6 3 1 1 1 1 0 0 0 0 0 0 0 0 0 0 0 0 0 0 0 0 0 0 0 0 0 0 0 0 0
15 3 24 16 0 1 0 0 0 0 0 0 0 0 0 0 0 0 4 2 1 1 1 0 1 0 0 0 0 0 0 0 0 0 0 0 0 0 0 0 0 0 0 0 0 0 0 0 0
29 32 32 27 18 2 0 0 0 0 0 0 0 0 0 0 0 0 5 10 2 1 0 0 0 0 0 0 0 0 0 0 0 0 0 0 0 0 0 0 0 0 0 0 0 0 0 0 0
28 7 13 11 20 3 0 0 0 0 0 0 0 0 0 0 0 0 3 2 2 0 0 0 0 0 0 0 0 0 0 0 0 0 0 0 0 0 0 0 0 0 0 0 0 0 0 0 0
5 14 1 5 4 25 1 1 0 0 0 0 0 0 0 0 0 0 3 1 2 0 0 0 0 0 0 0 0 0 0 0 0 0 0 0 0 0 0 0 0 0 0 0 0 0 0 0 0
0 2 2 1 5 0 1 0 0 0 0 0 0 0 0 0 0 0 1 4 1 0 0 0 0 0 0 0 0 0 0 0 0 0 0 0 0 0 0 0 0 0 0 0 0 0 0 0 0
21 9 8 4 0 1 12 7 1 0 0 0 0 0 0 0 0 1 3 2 0 1 0 0 0 0 0 0 0 0 0 0 0 0 0 0 0 0 0 0 0 0 0 0 0 0 0 0 0
10 7 19 8 0 0 3 1 0 0 0 0 0 0 0 0 0 2 4 2 1 1 0 0 0 0 0 0 0 0 0 0 0 0 0 0 0 0 0 0 0 0 0 0 0 0 0 0 0
15 11 8 15 2 6 0 7 0 0 0 0 0 0 0 0 0 3 4 2 1 1 0 0 0 0 0 0 0 0 0 0 0 0 0 0 0 0 0 0 0 0 0 0 0 0 0 0 0
1 0 13 30 25 1 1 18 1 0 0 0 0 0 1 3 3 8 2 1 1 1 1 1 0 0 0 0 0 0 0 0 0 0 0 0 0 0 0 0 0 0 0 0 0 0 0 0 0
0 0 1 22 45 40 3 3 10 0 0 0 0 0 3 3 1 0 0 0 1 1 1 1 0 0 0 0 0 0 0 0 0 0 0 0 0 0 0 0 0 0 0 0 0 0 0 0 0
5 11 18 14 16 6 3 11 4 0 2 0 1 3 3 3 1 0 0 0 0 0 0 1 0 0 0 0 0 0 0 0 0 0 0 0 0 0 0 0 0 0 0 0 0 0 0 0 0
28 7 22 17 20 10 0 12 2 1 1 1 3 5 3 2 2 0 0 0 0 0 0 0 0 0 0 0 0 0 0 0 0 0 0 0 0 0 0 0 0 0 0 0 0 0 0 0 0
6 5 2 1 0 9 6 0 1 1 8 8 8 5 4 3 3 2 1 1 1 0 0 0 0 0 0 0 0 0 0 0 0 0 0 0 0 0 0 0 0 0 0 0 0 0 0 0 0
13 1 8 20 8 16 3 0 4 4 8 7 6 4 3 2 2 3 2 2 1 1 1 0 0 0 0 0 0 0 0 0 0 0 0 0 0 0 0 0 0 0 0 0 0 0 0 0 0
16 16 10 7 3 16 10 7 4 4 6 4 4 3 3 2 2 2 3 3 2 1 1 1 1 1 2 1 0 0 0 0 0 0 0 0 0 0 0 0 0 0 0 0 0 0 0 0 0
3 9 5 24 4 1 1 7 2 2 5 3 4 5 5 3 4 5 6 7 6 5 5 3 1 0 0 0 0 0 0 0 0 0 0 0 0 0 0 0 0 0 0 0 0 0 0 0 0